{"data":{"norad_id":46784,"intl_designator":"2020-074AX","name":"STARLINK-1882","alt_names":[],"object_type":"PAYLOAD","status":"ACTIVE","operator":null,"country":"US","launch_date":"2020-10-24","launch_site_code":"AFETR","launch_vehicle":null,"mission":null,"orbit_class":"UNKNOWN","rcs_meters":null,"size_class":null,"mass_kg":null,"dimensions":null,"purposes":["comms"],"wikipedia_slug":null,"has_3d_model":false,"image_url":null,"decayed_at":null,"tle_current":{"epoch":"2026-07-06T15:52:23.836800Z","epoch_age_seconds":6574453,"freshness":"OLD","line1":"1 46784U 20074AX  26187.66138700  .09735311  12347-4  69707-3 0  9999","line2":"2 46784  53.0244  38.3139 0011047 266.1784  93.7999 16.39899092316139","mean_motion":16.39899092,"eccentricity":0.0011047,"inclination_deg":53.0244,"raan_deg":38.3139,"arg_perigee_deg":266.1784,"mean_anomaly_deg":93.7999,"bstar":0.00069707,"rev_number":31613,"period_min":87.810280951116,"perigee_km":158.84156267766,"apogee_km":173.30033572062,"semimajor_km":6544.2079491991,"source":"CELESTRAK","updated_at":"2026-07-07T09:00:47.670292Z"}}}